Weather in Bol'shoy Lychak

Russia / Volgograd Oblast     50°06′04″N   43°46′49″E
temp.,
°C
wind,
m/s
gust,
m/s
humid.,
%
clouds,
%
prec.,
mm/h
press.,
hPa
HPBL,
m
28 february, sun
sun2800:00−5nnw7118295 0.1 1010643
03:00−6nnw598385 0.1 1012561
06:00−7nnw588493 0.0 1014535
09:00−7nnw577985 0.0 1015509
12:00−5nw467033 0.0 1015613
15:00−3nw567249 0.0 1015651
18:00−5nnw368395 0.0 1017528
21:00−5nnw358397 0.1 1019593
1 march, mon
mon100:00−6n2488100 0.0 1020302
03:00−7n229189 0.1 102196
06:00−8nne229230 0.0 102381
09:00−7n238242 0.0 1025290
12:00−5nnw347088 0.0 1025587
15:00−3nw346685 0.0 1026625
18:00−5nw24774 0.0 1026178
21:00−6nw12832 0.0 102638
2 march, tue
tue200:00−6wsw33840 0.0 102668
03:00−5sw498519 0.0 1024205
06:00−4wsw61388100 0.0 1021389
09:00−2wsw91578100 0.0 1018701
12:00−1wsw101593100 0.5 1015863
15:000wsw101597100 3.6 1012916
18:000wnw81498100 1.5 1010628
21:000nw51190100 2.0 1010630
3 march, wed
wed300:00−2wnw5129192 0.1 1010421
03:00−2wnw6109395 0.2 1011584
06:00−2wnw61193100 0.2 1011727
09:00−2nw61092100 0.3 1012880
12:00−1nw71083100 0.3 10131018
15:00−1nw81182100 0.4 10141062
18:00−3nw71185100 0.1 10161017
21:00−3nw71281100 0.2 10191062
4 march, thu
thu400:00−4nw5129199 0.0 1020504
03:00−5nw4109486 0.1 1021314
06:00−6wnw37961 0.0 1022156
09:00−3w47925 0.0 1023397
12:00−1wsw587943 0.0 1022792
15:00+1wsw597830 0.0 1021863
18:00−1sw510770 0.0 1019205
21:00−1sw613800 0.0 1018282